QPF
0.00 0.00 0.00 0.00 0.00 0.00 0.00 0.00 0.00 0.00 0.00 0.00 0.00 0.00 0.00 0.00 0.00 0.00 0.00 0.00 0.00 0.00 0.00 0.00 0.00 0.00 0.00
0.00 0.00 0.00 0.00 0.00 0.00 0.00 0.00 0.00 0.00 0.00 0.00 0.00 0.00 0.00 0.00 0.00 0.00 0.00 0.00 0.00 0.00 0.00 0.00 0.00 0.00 0.00
0.00 0.00 0.00 0.00 0.00 0.00 0.00 0.00 0.00 0.00 0.00 0.00 0.00 0.00 0.00 0.00 0.00 0.00 0.00 0.00 0.00 0.00 0.00 0.00 0.00 0.00 0.00
0.01 0.00 0.00 0.00 0.00 0.00 0.00 0.00 0.00 0.00 0.00 0.00 0.00 0.00 0.00 0.00 0.00 0.00 0.00 0.00 0.00 0.00 0.00 0.00 0.00 0.00 0.00
0.01 0.00 0.00 0.00 0.00 0.00 0.00 0.00 0.00 0.00 0.00 0.00 0.00 0.00 0.00 0.00 0.00 0.00 0.00 0.00 0.00 0.00 0.00 0.00 0.00 0.00 0.00
0.00 0.01 0.00 0.00 0.00 0.00 0.00 0.00 0.00 0.00 0.00 0.00 0.00 0.00 0.00 0.00 0.00 0.00 0.00 0.00 0.00 0.00 0.00 0.00 0.00 0.00 0.00
0.01 0.01 0.01 0.00 0.00 0.00 0.00 0.00 0.00 0.00 0.00 0.00 0.00 0.00 0.00 0.00 0.00 0.00 0.00 0.00 0.00 0.00 0.00 0.00 0.00 0.00 0.00
0.00 0.00 0.00 0.01 0.01 0.01 0.00 0.00 0.00 0.00 0.00 0.00 0.00 0.00 0.00 0.00 0.00 0.00 0.00 0.00 0.00 0.00 0.00 0.00 0.00 0.00 0.00
0.01 0.00 0.00 0.00 0.01 0.01 0.00 0.00 0.00 0.00 0.00 0.00 0.00 0.00 0.00 0.00 0.00 0.00 0.00 0.00 0.00 0.00 0.00 0.00 0.00 0.00 0.00
0.00 0.00 0.00 0.00 0.01 0.01 0.00 0.00 0.00 0.00 0.00 0.00 0.00 0.00 0.00 0.00 0.00 0.00 0.00 0.00 0.00 0.00 0.00 0.00 0.00 0.00 0.00
0.00 0.00 0.00 0.00 0.00 0.00 0.00 0.00 0.00 0.00 0.00 0.00 0.00 0.00 0.00 0.00 0.00 0.00 0.00 0.00 0.00 0.00 0.00 0.00 0.00 0.00 0.00
0.00 0.00 0.00 0.00 0.00 0.00 0.00 0.00 0.00 0.00 0.00 0.00 0.00 0.00 0.00 0.00 0.00 0.00 0.00 0.00 0.00 0.00 0.00 0.00 0.00 0.00 0.00
0.00 0.00 0.00 0.00 0.00 0.00 0.00 0.00 0.00 0.00 0.00 0.00 0.00 0.00 0.00 0.00 0.00 0.00 0.00 0.00 0.00 0.00 0.00 0.00 0.00 0.00 0.00
0.00 0.00 0.00 0.00 0.00 0.00 0.00 0.00 0.00 0.00 0.00 0.00 0.00 0.00 0.00 0.00 0.00 0.00 0.00 0.00 0.00 0.00 0.00 0.00 0.00 0.00 0.00
0.00 0.00 0.00 0.00 0.00 0.00 0.00 0.00 0.00 0.00 0.00 0.00 0.00 0.00 0.00 0.00 0.00 0.00 0.00 0.00 0.00 0.00 0.00 0.00 0.00 0.00 0.00
0.00 0.00 0.00 0.00 0.00 0.00 0.00 0.00 0.00 0.00 0.00 0.00 0.00 0.00 0.00 0.00 0.00 0.00 0.00 0.00 0.00 0.00 0.00 0.00 0.00 0.00 0.00
0.00 0.00 0.00 0.00 0.00 0.00 0.00 0.00 0.00 0.00 0.00 0.00 0.00 0.00 0.00 0.00 0.00 0.00 0.00 0.00 0.00 0.00 0.00 0.00 0.00 0.00 0.00
MSLP
1012.44 1012.47 1012.54 1012.78 1012.90 1012.83 1012.65 1012.48 1012.21 1011.83 1011.45 1011.25 1011.18 1010.78 1010.61 1010.33 1010.20 1010.13 1009.92 1009.85 1009.83 1010.12 1009.88 1010.12 1009.86 1010.02 1010.06
1011.49 1011.59 1011.60 1011.66 1011.90 1012.30 1012.31 1011.93 1011.73 1011.38 1010.92 1010.63 1010.43 1010.28 1010.08 1009.70 1009.46 1009.42 1009.25 1009.07 1009.19 1009.32 1009.40 1009.36 1009.52 1009.33 1009.59
1011.31 1011.09 1010.65 1010.75 1010.90 1011.27 1011.47 1011.44 1011.25 1010.83 1010.32 1009.93 1009.86 1009.72 1009.57 1009.00 1008.81 1008.42 1008.30 1008.29 1008.35 1008.63 1008.73 1008.93 1009.02 1009.02 1009.08
1011.37 1010.90 1010.58 1010.43 1010.28 1010.37 1010.43 1010.74 1010.77 1010.24 1009.67 1009.57 1009.36 1009.13 1008.79 1008.46 1008.07 1007.37 1007.38 1007.32 1007.57 1007.98 1008.35 1008.20 1008.58 1008.62 1008.81
1011.21 1010.86 1010.58 1010.28 1010.25 1010.03 1010.05 1010.04 1010.11 1010.10 1009.77 1009.39 1009.30 1009.07 1008.59 1008.01 1007.37 1006.89 1006.61 1006.76 1007.03 1007.40 1007.82 1007.87 1008.03 1008.25 1008.33
1010.92 1010.58 1010.25 1010.01 1010.07 1009.79 1009.81 1009.74 1009.75 1009.52 1009.54 1009.17 1009.13 1008.70 1008.15 1007.54 1006.90 1006.49 1006.30 1006.30 1006.62 1006.94 1007.31 1007.71 1007.67 1007.70 1007.74
1010.72 1010.32 1009.93 1009.67 1009.43 1009.22 1009.04 1008.92 1008.61 1008.54 1008.88 1008.68 1008.86 1008.46 1007.82 1007.06 1006.47 1006.24 1006.22 1006.30 1006.52 1006.85 1007.09 1007.29 1007.29 1007.20 1007.14
1010.06 1009.70 1009.45 1009.22 1008.92 1008.50 1008.10 1008.00 1007.98 1008.16 1008.45 1008.36 1008.09 1007.81 1007.19 1006.46 1006.06 1006.08 1006.24 1006.32 1006.33 1006.42 1006.64 1006.74 1006.81 1006.83 1006.73
1009.29 1009.00 1008.74 1008.48 1008.28 1008.10 1007.70 1007.66 1007.56 1007.72 1007.89 1008.26 1008.02 1007.77 1007.26 1006.46 1006.27 1006.22 1006.29 1006.31 1006.26 1006.13 1006.16 1006.22 1006.37 1006.57 1006.69
1008.92 1008.50 1008.12 1007.67 1007.40 1007.15 1007.09 1007.06 1007.16 1007.49 1007.46 1008.08 1008.11 1008.18 1007.14 1006.52 1006.34 1006.29 1006.27 1006.19 1006.20 1006.00 1005.81 1005.78 1006.01 1006.22 1006.59
1008.35 1007.92 1007.57 1007.20 1006.69 1006.41 1006.34 1006.46 1006.59 1006.72 1006.92 1007.50 1007.98 1008.05 1007.87 1007.32 1006.58 1006.38 1006.33 1006.19 1006.14 1005.94 1005.70 1005.52 1005.70 1005.88 1006.18
1007.64 1007.33 1007.14 1006.73 1006.17 1005.80 1005.75 1005.72 1005.72 1005.81 1006.18 1006.67 1007.38 1007.74 1007.78 1007.63 1007.35 1006.48 1006.31 1006.25 1006.32 1006.12 1005.85 1005.52 1005.57 1005.62 1005.65
1007.05 1006.68 1006.47 1006.06 1005.59 1005.34 1005.21 1005.20 1005.36 1005.46 1005.72 1006.18 1006.66 1007.20 1007.46 1007.56 1007.41 1007.12 1006.92 1006.44 1006.38 1006.30 1006.01 1005.90 1005.82 1005.75 1005.80
1006.05 1005.64 1005.50 1005.37 1004.94 1004.68 1004.75 1004.85 1005.05 1005.31 1005.54 1005.75 1006.32 1006.72 1007.13 1007.21 1007.31 1007.25 1007.17 1007.11 1006.65 1006.42 1006.42 1006.36 1006.29 1006.00 1005.98
1005.27 1004.92 1004.74 1004.63 1004.37 1004.06 1004.01 1004.12 1004.29 1004.51 1005.05 1005.47 1006.01 1006.38 1006.65 1006.78 1006.76 1006.71 1006.67 1006.59 1006.48 1006.50 1006.51 1006.61 1006.60 1006.29 1006.17
1004.42 1004.08 1003.85 1003.81 1003.62 1003.42 1003.36 1003.32 1003.45 1003.68 1004.05 1004.67 1005.48 1006.19 1006.55 1006.50 1006.27 1006.25 1006.29 1006.25 1006.18 1006.29 1006.36 1006.51 1006.69 1006.55 1006.38
1003.52 1003.28 1003.13 1002.97 1002.76 1002.49 1002.54 1002.58 1002.72 1002.89 1003.21 1003.83 1004.58 1005.16 1005.65 1005.57 1005.90 1005.85 1005.93 1005.93 1006.00 1006.21 1006.32 1006.39 1006.52 1006.74 1006.73
Thickness
5517 5516 5517 5515 5517 5524 5529 5535 5543 5552 5560 5565 5570 5579 5585 5592 5597 5600 5607 5611 5615 5615 5621 5621 5628 5628 5631
5513 5512 5513 5513 5512 5512 5517 5523 5530 5538 5547 5555 5562 5568 5573 5581 5588 5592 5598 5603 5606 5609 5611 5615 5614 5621 5621
5494 5500 5506 5506 5507 5506 5507 5512 5519 5526 5535 5544 5551 5557 5562 5571 5577 5586 5591 5595 5599 5599 5602 5604 5607 5610 5613
5470 5480 5488 5490 5495 5499 5501 5501 5506 5515 5524 5531 5537 5545 5553 5561 5569 5579 5583 5588 5590 5591 5591 5597 5597 5600 5601
5449 5460 5468 5475 5478 5483 5487 5491 5494 5500 5508 5515 5523 5530 5536 5547 5557 5567 5574 5577 5579 5580 5580 5585 5588 5588 5591
5431 5440 5451 5459 5463 5467 5472 5477 5482 5488 5494 5502 5506 5514 5524 5534 5543 5553 5560 5565 5568 5569 5569 5570 5576 5580 5583
5409 5421 5431 5441 5448 5456 5460 5467 5477 5482 5484 5493 5491 5501 5510 5521 5530 5536 5541 5547 5551 5553 5556 5559 5563 5569 5574
5393 5403 5411 5421 5431 5442 5451 5457 5464 5469 5472 5480 5485 5491 5501 5512 5519 5523 5526 5530 5534 5539 5542 5547 5552 5558 5564
5375 5386 5397 5406 5414 5424 5437 5442 5451 5457 5461 5464 5474 5478 5486 5498 5504 5508 5512 5515 5520 5526 5530 5536 5540 5545 5550
5356 5369 5381 5392 5402 5412 5422 5431 5436 5439 5448 5449 5456 5459 5474 5483 5490 5495 5500 5504 5507 5513 5520 5526 5530 5535 5538
5340 5352 5364 5375 5388 5399 5407 5415 5422 5430 5436 5436 5439 5445 5452 5464 5474 5482 5487 5492 5497 5503 5510 5516 5520 5525 5529
5325 5337 5348 5360 5372 5383 5392 5402 5411 5420 5425 5428 5428 5434 5439 5448 5457 5466 5474 5480 5484 5490 5497 5505 5509 5515 5520
5309 5322 5333 5346 5358 5369 5379 5389 5395 5404 5411 5416 5419 5422 5428 5434 5443 5449 5456 5464 5471 5476 5483 5489 5495 5501 5506
5299 5311 5321 5332 5346 5357 5367 5374 5382 5389 5396 5402 5406 5410 5415 5422 5428 5435 5440 5448 5455 5462 5467 5472 5478 5485 5491
5286 5299 5309 5319 5332 5345 5355 5363 5374 5381 5384 5387 5392 5397 5404 5411 5419 5426 5432 5438 5443 5448 5453 5458 5462 5470 5476
5276 5290 5302 5310 5321 5333 5343 5354 5363 5371 5377 5378 5380 5383 5389 5398 5408 5415 5421 5427 5432 5436 5441 5446 5449 5455 5461
5271 5281 5292 5303 5314 5326 5335 5344 5353 5361 5369 5371 5373 5378 5384 5397 5394 5402 5410 5415 5420 5424 5428 5433 5437 5440 5445